Location: Recife
(8.0585°S, 34.8848°W)
Time: 12:27:16
(UTC-03:00)

Vanguard 2 Rocket - Pass Details

Date: 22 April 2026
Orbit: 553 x 3286 km, 32.9° (Epoch: 7 May)

Event Time Altitude Azimuth Distance (km) Brightness Sun altitude
Rises 13:00:47 0° 241° (WSW) 6,543 11.4 57.3°
Reaches altitude 10° 13:04:45 10° 243° (WSW) 5,768 11.3 56.5°
Maximum altitude 13:23:50 69° 322° (NW) 3,428 11.6 52.7°
Drops below altitude 10° 13:42:07 10° 43° (NE) 5,531 10.9 48.8°
Sets 13:45:52 0° 46° (NE) 6,272 11.1 48.0°
